Weather History for Jordan, MT

Change the Weather History Date:

Sunday, February 3, 2013

  Actual Average Record
Temperature  
Mean Temperature 36 °F 20 °F  
Max Temperature 46 °F 31 °F 67 °F (1962)
Min Temperature 25 °F 8 °F -40 °F (1982)
Degree Days  
Heating Degree Days 29 45  
Month to date heating degree days 96 137  
Since 1 July heating degree days 4587 5067  
Cooling Degree Days 0 0  
Month to date cooling degree days 0 0  
Year to date cooling degree days 0 0  
Moisture  
Dew Point 25 °F    
Average Humidity 71    
Maximum Humidity 92    
Minimum Humidity 49    
Precipitation  
Precipitation 0.00 in 0.01 in 0.25 in (1912)
Month to date precipitation 0.00 0.02  
Year to date precipitation 0.33 0.25  
Snow  
Snow 0.00 in - - ()
Month to date snowfall 0.0  
Since 1 July snowfall 0.0  
Snow Depth 0.00 in    
Sea Level Pressure  
Sea Level Pressure 29.96 in    
Wind  
Wind Speed 8 mph (WNW)    
Max Wind Speed 25 mph    
Max Gust Speed 32 mph    
T = Trace of Precipitation, MM = Missing Value Source: NWS Daily Summary

Daily Weather History Graph

Daily Weather History Graph

Search for Another Location

Airport:

Trip Planner

Search our weather history database for the weather conditions in past years. The results will help you decide how hot, cold, wet, or windy it might be!

Date:

Astronomy

Feb. 03, 2013 Rise Set
Actual Time 7:30 AM MST 5:13 PM MST
Civil Twilight 6:57 AM MST 5:46 PM MST
Nautical Twilight 6:21 AM MST 6:22 PM MST
Astronomical Twilight 5:45 AM MST 6:58 PM MST
Moon 1:02 AM MST (2/3) 10:49 AM MST (2/3)
Length of Visible Light 10h 48m
Length of Day
9h 42m
Waning Gibbous, 48% of the Moon is Illuminated
Feb 3
Waning Gibbous
Feb 10
New
Feb 17
First Quarter
Feb 25
Full
Mar 4
Last Quarter

Hourly Weather History & Observations

Time (MST) Temp. Windchill Dew Point Humidity Pressure Visibility Wind Dir Wind Speed Gust Speed Precip Events Conditions
12:48 AM 30.0 °F 21.1 °F 24.1 °F 79% 30.09 in - WNW 10.4 mph - N/A   Unknown
1:48 AM 30.9 °F 22.2 °F 24.1 °F 76% 30.05 in - West 10.4 mph - N/A   Unknown
2:48 AM 28.0 °F - 23.0 °F 81% 30.04 in - Calm Calm - N/A   Unknown
3:48 AM 30.9 °F 23.5 °F 24.1 °F 76% 29.99 in - WNW 8.1 mph - N/A   Unknown
4:48 AM 30.9 °F 23.5 °F 23.0 °F 72% 29.97 in - West 8.1 mph - N/A   Unknown
5:48 AM 28.0 °F 21.7 °F 21.9 °F 78% 29.94 in - WNW 5.8 mph - N/A   Unknown
6:48 AM 28.9 °F 20.4 °F 21.9 °F 75% 29.92 in - West 9.2 mph - N/A   Unknown
7:48 AM 28.9 °F 22.8 °F 21.9 °F 75% 29.91 in - WNW 5.8 mph - N/A   Unknown
8:48 AM 30.9 °F 26.2 °F 23.0 °F 72% 29.91 in - West 4.6 mph - N/A   Unknown
9:48 AM 37.0 °F 29.8 °F 23.0 °F 57% 29.90 in - West 10.4 mph - N/A   Unknown
10:48 AM 43.0 °F 36.0 °F 25.0 °F 49% 29.90 in - West 13.8 mph - N/A   Unknown
11:48 AM 43.0 °F 35.4 °F 26.1 °F 51% 29.89 in - WNW 16.1 mph - N/A   Unknown
12:48 PM 44.1 °F 35.9 °F 27.0 °F 51% 29.90 in - NW 19.6 mph - N/A   Unknown
1:48 PM 43.0 °F 34.8 °F 28.0 °F 56% 29.91 in - NW 18.4 mph 25.3 mph N/A   Unknown
2:48 PM 42.1 °F 34.9 °F 28.9 °F 60% 29.94 in - WNW 13.8 mph - N/A   Unknown
3:48 PM 41.0 °F 32.8 °F 28.0 °F 60% 29.94 in - NW 16.1 mph - N/A   Unknown
4:48 PM 37.0 °F 31.0 °F 28.9 °F 73% 29.96 in - WNW 8.1 mph - N/A   Unknown
5:48 PM 34.0 °F 28.8 °F 28.0 °F 79% 29.98 in - WNW 5.8 mph - N/A   Unknown
6:48 PM 35.1 °F 28.6 °F 28.0 °F 76% 29.98 in - West 8.1 mph - N/A   Unknown
7:48 PM 34.0 °F - 28.0 °F 79% 29.99 in - Calm Calm - N/A   Unknown
8:48 PM 28.9 °F 25.2 °F 26.1 °F 89% 29.99 in - WNW 3.5 mph - N/A   Unknown
9:48 PM 26.1 °F - 24.1 °F 92% 29.97 in - Calm Calm - N/A   Unknown
10:48 PM 26.1 °F - 23.0 °F 88% 29.96 in - Calm Calm - N/A   Unknown
11:48 PM 30.0 °F 26.5 °F 27.0 °F 88% 29.93 in - WNW 3.5 mph - N/A   Unknown